Location: Peebles
(55.6412°N, 3.1714°W)
Time: 22:45:55
(UTC+01:00)

CENTAUR R/B - Pass Details

Date: 23 January 2022
Orbit: 716 x 1471 km, 63.4° (Epoch: 08 May)

Event Time Altitude Azimuth Distance (km) Brightness Sun altitude
Rises 23:09:19 0° 307° (NW) 4,003 6.3 -51.0°
Reaches altitude 10° 23:11:51 10° 308° (NW) 3,139 5.5 -51.1°
Enters shadow 23:13:14 17° 308° (NW) 2,685 5.1 -51.2°
